Weather reports worldwide

Advertisment
Trawscoed, United Kingdom (3503): temperature & dewpoint: 19.06.2017 23:00:00 - 25.06.2017 23:00:00 (BST)Trawscoed, United Kingdom (3503): temperature 5cm: 19.06.2017 23:00:00 - 25.06.2017 23:00:00 (BST)Trawscoed, United Kingdom (3503): temperature -20cm & temperature -100cm: 19.06.2017 23:00:00 - 25.06.2017 23:00:00 (BST)Trawscoed, United Kingdom (3503): wind speed: 19.06.2017 23:00:00 - 25.06.2017 23:00:00 (BST)Trawscoed, United Kingdom (3503): wind direction: 19.06.2017 23:00:00 - 25.06.2017 23:00:00 (BST)Trawscoed, United Kingdom (3503): reduced air pressure: 19.06.2017 23:00:00 - 25.06.2017 23:00:00 (BST)Trawscoed, United Kingdom (3503): visibility: 19.06.2017 23:00:00 - 25.06.2017 23:00:00 (BST)Trawscoed, United Kingdom (3503): precipitation: 19.06.2017 23:00:00 - 25.06.2017 23:00:00 (BST)
Date & Time tt [°C] td [°C] tt 5cm [°C] tt -20cm [°C] tt -100cm [°C] ff [km/h] ff [kn] dd ppp [hPa] vv [km] rr [mm]
25.06.2017 23:00:00 12,1 11,1 - - - 0 0 N 1014,8 25 0,0
25.06.2017 22:00:00 12,8 11,5 - - - 4 2 SE 1014,7 50 0,0
25.06.2017 21:00:00 14,1 11,3 - - - 0 0 N 1014,3 50 0,0
25.06.2017 20:00:00 14,3 11,4 - - - 4 2 W 1014,1 50 0,0
25.06.2017 19:00:00 14,3 11,0 - - - 5 3 W 1014,0 40 0,0
25.06.2017 18:00:00 14,5 12,1 - - - 13 7 WNW 1013,8 30 0,0
25.06.2017 17:00:00 14,8 12,6 - - - 15 8 WNW 1013,4 35 0,0
25.06.2017 16:00:00 15,2 13,0 - - - 15 8 WNW 1013,0 45 0,2
25.06.2017 15:00:00 15,3 14,2 - - - 11 6 W 1012,8 13 0,0
25.06.2017 14:00:00 15,3 12,8 - - - 18 10 W 1012,6 13 0,0
25.06.2017 13:00:00 16,1 13,7 - - - 16 9 W 1012,2 35 0,0
25.06.2017 12:00:00 15,2 13,8 - - - 15 8 W 1012,1 6 0,0
25.06.2017 11:00:00 15,2 13,9 - - - 13 7 W 1011,6 23 0,4
25.06.2017 10:00:00 15,1 14,4 - 18,2 16,2 9 5 W 1011,4 23 0,0
25.06.2017 09:00:00 14,5 13,8 - - - 15 8 WSW 1011,3 6 0,4
25.06.2017 08:00:00 14,3 13,9 - - - 13 7 W 1011,2 4,4 1,0
25.06.2017 07:00:00 13,7 13,3 - - - 8 4 SW 1011,2 1,5 0,4
25.06.2017 06:00:00 12,7 11,8 - - - 2 1 S 1011,5 19 0,0
25.06.2017 05:00:00 12,4 11,5 - - - 5 3 SSE 1011,8 18 0,2
25.06.2017 04:00:00 12,7 11,6 - - - 4 2 S 1011,9 20 0,2
25.06.2017 03:00:00 13,7 11,5 - - - 8 4 SW 1012,1 9 0,0
25.06.2017 02:00:00 14,3 11,6 - - - 8 4 SW 1012,2 18 0,0
25.06.2017 01:00:00 14,6 12,0 - - - 9 5 SW 1012,4 19 0,0
25.06.2017 00:00:00 15,0 12,5 - - - 5 3 SW 1012,6 26 0,0
24.06.2017 23:00:00 15,3 12,7 - - - 8 4 SW 1012,8 45 0,0
24.06.2017 22:00:00 15,2 12,7 - - - 5 3 SSW 1012,5 50 0,0
24.06.2017 21:00:00 15,0 13,2 - - - 9 5 WSW 1012,5 27 0,0
24.06.2017 20:00:00 15,3 13,5 - - - 16 9 W 1012,3 24 0,0
24.06.2017 19:00:00 17,4 13,9 - - - 9 5 W 1011,9 45 0,0
24.06.2017 18:00:00 17,5 14,9 - - - 11 6 W 1012,3 20 0,0
24.06.2017 17:00:00 17,3 14,5 - - - 11 6 W 1012,5 45 0,0
24.06.2017 16:00:00 18,1 14,5 - - - 11 6 SW 1012,8 35 0,0
24.06.2017 15:00:00 14,7 13,5 - - - 13 7 W 1013,6 8 0,0
24.06.2017 14:00:00 14,8 13,2 - - - 15 8 W 1014,0 21 0,0
24.06.2017 13:00:00 15,7 13,6 - - - 11 6 W 1013,9 30 0,0
24.06.2017 12:00:00 15,5 13,1 - - - 11 6 W 1013,7 28 0,0
24.06.2017 11:00:00 15,0 12,9 - - - 9 5 W 1013,9 21 0,0
24.06.2017 10:00:00 14,7 13,3 - 18,4 16,2 9 5 W 1013,9 15 0,0
24.06.2017 09:00:00 14,5 12,5 - - - 9 5 W 1013,9 22 0,0
24.06.2017 08:00:00 14,2 12,6 - - - 9 5 W 1014,0 22 0,0
24.06.2017 07:00:00 14,2 13,1 - - - 4 2 W 1013,8 14 0,0
24.06.2017 06:00:00 14,3 13,1 - - - 8 4 SW 1013,8 14 0,0
24.06.2017 05:00:00 14,4 13,3 - - - 11 6 W 1013,7 12 0,0
24.06.2017 04:00:00 14,7 13,6 - - - 8 4 W 1014,3 11 0,0
24.06.2017 03:00:00 14,9 14,3 - - - 13 7 WSW 1014,1 9 0,0
24.06.2017 02:00:00 15,1 14,3 - - - 13 7 WSW 1014,0 5 0,0
24.06.2017 01:00:00 15,3 14,1 - - - 13 7 WSW 1014,0 27 0,2
24.06.2017 00:00:00 15,3 14,5 - - - 13 7 WSW 1014,5 4,8 0,0
23.06.2017 23:00:00 15,6 14,5 - - - 11 6 WSW 1014,6 8 0,0
23.06.2017 22:00:00 15,7 14,4 - - - 8 4 SSW 1014,4 13 0,0
23.06.2017 21:00:00 15,8 14,4 - - - 13 7 SSW 1014,5 20 0,0
23.06.2017 20:00:00 15,9 14,4 - - - 11 6 SW 1014,5 14 0,0
23.06.2017 19:00:00 15,8 14,5 - - - 11 6 SW 1014,7 35 0,0
23.06.2017 18:00:00 15,7 14,5 - - - 9 5 SW 1014,9 45 0,2
23.06.2017 17:00:00 15,3 14,6 - - - 9 5 SW 1015,1 3,7 1,0
23.06.2017 16:00:00 15,5 14,7 - - - 9 5 SW 1015,2 2,4 2,2
23.06.2017 15:00:00 15,4 14,8 - - - 5 3 SW 1015,4 2,5 3,6
23.06.2017 14:00:00 15,3 14,3 - - - 8 4 WSW 1015,4 2,1 0,4
23.06.2017 13:00:00 15,3 14,2 - - - 9 5 SW 1015,3 5 1,0
23.06.2017 12:00:00 14,9 14,0 - - - 11 6 SW 1015,6 3,0 1,0
23.06.2017 11:00:00 15,0 13,2 - - - 9 5 SW 1015,4 26 0,0
23.06.2017 10:00:00 14,5 13,3 - 19,2 16,0 5 3 WSW 1015,6 29 0,4
23.06.2017 09:00:00 14,3 13,5 - - - 9 5 SW 1015,2 4,5 2,0
23.06.2017 08:00:00 13,9 13,0 - - - 9 5 WSW 1015,2 3,2 0,6
23.06.2017 07:00:00 14,3 12,3 - - - 13 7 WSW 1014,9 15 0,0
23.06.2017 06:00:00 14,6 11,8 - - - 9 5 WSW 1014,7 35 0,0
23.06.2017 05:00:00 14,1 11,1 - - - 11 6 SSW 1014,8 35 0,0
23.06.2017 04:00:00 13,7 11,0 - - - 8 4 SW 1014,9 28 0,0
23.06.2017 03:00:00 13,8 10,8 - - - 13 7 SW 1015,3 27 0,0
23.06.2017 02:00:00 12,9 11,1 - - - 4 2 SSW 1015,5 25 0,0
23.06.2017 01:00:00 12,2 10,5 - - - 4 2 SSE 1015,2 28 0,0
23.06.2017 00:00:00 12,9 10,3 - - - 4 2 SSW 1015,4 35 0,0
22.06.2017 23:00:00 13,9 11,5 - - - 8 4 SSW 1015,5 40 0,0
22.06.2017 22:00:00 14,1 11,5 - - - 5 3 WSW 1015,1 50 0,0
22.06.2017 21:00:00 14,7 11,8 - - - 8 4 W 1014,9 50 0,0
22.06.2017 20:00:00 14,9 12,0 - - - 11 6 W 1015,0 45 0,0
22.06.2017 19:00:00 16,5 12,9 - - - 11 6 W 1014,7 40 0,0
22.06.2017 18:00:00 17,0 12,6 - - - 11 6 W 1014,3 45 0,0
22.06.2017 17:00:00 17,3 12,9 - - - 8 4 W 1014,3 29 0,0
22.06.2017 16:00:00 15,6 12,5 - - - 13 7 W 1014,6 25 0,0
22.06.2017 15:00:00 16,2 13,0 - - - 15 8 W 1014,2 30 0,0
22.06.2017 14:00:00 15,8 13,8 - - - 15 8 W 1013,7 16 0,0
22.06.2017 13:00:00 15,3 14,5 - - - 11 6 WNW 1013,4 8 0,2
22.06.2017 12:00:00 15,2 14,3 - - - 13 7 WNW 1013,0 3,0 0,2
22.06.2017 11:00:00 15,2 14,8 - - - 13 7 WNW 1012,1 2,5 0,0
22.06.2017 10:00:00 15,5 14,7 - 20,0 15,9 11 6 W 1011,6 2,1 0,0
22.06.2017 09:00:00 15,8 14,3 - - - 4 2 SSE 1011,2 5 0,0
22.06.2017 08:00:00 15,7 13,7 - - - 4 2 S 1010,9 11 0,0
22.06.2017 07:00:00 15,5 13,1 - - - 8 4 S 1010,4 18 0,0
22.06.2017 06:00:00 15,6 12,6 - - - 8 4 SSE 1010,6 24 0,0
22.06.2017 05:00:00 15,6 12,3 - - - 8 4 SW 1010,8 35 0,0
22.06.2017 04:00:00 15,7 12,4 - - - 13 7 SW 1011,1 35 0,0
22.06.2017 03:00:00 16,1 12,8 - - - 15 8 SW 1011,3 22 0,0
22.06.2017 02:00:00 16,7 14,3 - - - 11 6 SSW 1011,4 16 0,0
22.06.2017 01:00:00 17,6 15,2 - - - 9 5 WSW 1011,4 16 0,0
22.06.2017 00:00:00 17,0 16,5 - - - 4 2 NE 1011,2 3,1 0,0
21.06.2017 23:00:00 17,7 16,4 - - - 15 8 WNW 1011,5 3,8 0,0
21.06.2017 22:00:00 19,8 17,4 - - - 2 1 S 1010,7 16 0,0
21.06.2017 21:00:00 21,1 17,6 - - - 4 2 NW 1010,8 13 0,0
21.06.2017 20:00:00 22,0 17,9 - - - 9 5 W 1011,1 13 0,0
21.06.2017 19:00:00 26,2 20,2 - - - 8 4 W 1010,7 20 0,0
21.06.2017 18:00:00 28,4 20,1 - - - 13 7 SW 1010,4 21 0,0
21.06.2017 17:00:00 29,8 20,2 - - - 13 7 SSW 1010,3 27 0,0
21.06.2017 16:00:00 29,9 18,6 - - - 13 7 SSW 1010,5 30 0,0
21.06.2017 15:00:00 28,6 20,3 - - - 2 1 W 1011,4 40 0,0
21.06.2017 14:00:00 28,4 19,3 - - - 5 3 S 1011,5 28 0,0
21.06.2017 13:00:00 27,3 18,4 - - - 13 7 ESE 1012,0 7 0,0
21.06.2017 12:00:00 27,7 18,5 - - - 15 8 ESE 1012,7 16 0,0
21.06.2017 11:00:00 26,3 18,5 - - - 9 5 SE 1013,3 45 0,0
21.06.2017 10:00:00 25,5 18,3 25,7 19,7 15,7 8 4 SE 1013,9 23 0,0
21.06.2017 09:00:00 23,6 19,4 - - - 4 2 NNE 1014,3 20 0,0
21.06.2017 08:00:00 21,9 18,2 - - - 2 1 NNW 1014,1 13 0,0
21.06.2017 07:00:00 20,7 17,5 - - - 2 1 S 1014,8 13 0,0
21.06.2017 06:00:00 18,3 16,9 - - - 4 2 W 1015,3 8 0,0
21.06.2017 05:00:00 17,7 16,7 - - - 4 2 NW 1015,6 4,7 0,0
21.06.2017 04:00:00 18,1 16,9 - - - 4 2 SSW 1015,7 6 0,0
21.06.2017 03:00:00 19,5 17,3 - - - 8 4 ENE 1016,0 7 0,0
21.06.2017 02:00:00 21,2 17,8 - - - 8 4 SE 1015,0 10 0,0
21.06.2017 01:00:00 21,2 18,1 - - - 13 7 ESE 1015,2 9 0,0
21.06.2017 00:00:00 18,7 18,1 - - - 2 1 SW 1015,9 8 0,0
20.06.2017 23:00:00 18,1 17,2 - - - 2 1 ESE 1016,6 15 0,0
20.06.2017 22:00:00 19,1 16,7 - - - 2 1 SE 1017,0 19 0,0
20.06.2017 21:00:00 21,2 17,9 - - - 5 3 NW 1016,7 40 0,0
20.06.2017 20:00:00 22,2 18,4 - - - 8 4 WNW 1016,6 40 0,0
20.06.2017 19:00:00 23,5 18,7 - - - 8 4 WNW 1016,2 26 0,0
20.06.2017 18:00:00 25,8 19,8 - - - 9 5 WNW 1015,7 26 0,0
20.06.2017 17:00:00 27,2 20,5 - - - 9 5 W 1016,1 29 0,0
20.06.2017 16:00:00 26,2 19,0 - - - 11 6 WNW 1016,8 17 0,0
20.06.2017 15:00:00 25,9 19,4 - - - 18 10 W 1017,1 24 0,0
20.06.2017 14:00:00 27,3 18,8 - - - 5 3 ENE 1017,1 35 0,0
20.06.2017 13:00:00 27,2 19,4 - - - 11 6 ENE 1017,4 5 0,0
20.06.2017 12:00:00 26,0 19,1 - - - 15 8 ENE 1017,9 26 0,0
20.06.2017 11:00:00 24,9 17,8 - - - 13 7 E 1018,0 35 0,0
20.06.2017 10:00:00 24,0 16,4 24,7 19,2 15,4 2 1 WSW 1018,3 30 0,0
20.06.2017 09:00:00 22,0 17,5 - - - 4 2 SE 1018,4 30 0,0
20.06.2017 08:00:00 18,0 17,1 - - - 2 1 NW 1018,3 35 0,0
20.06.2017 07:00:00 15,8 15,8 - - - 0 0 N 1018,4 10 0,0
20.06.2017 06:00:00 14,5 14,4 - - - 2 1 N 1018,3 8 0,0
20.06.2017 05:00:00 14,0 13,8 - - - 0 0 N 1018,5 7 0,0
20.06.2017 04:00:00 14,6 14,3 - - - 2 1 S 1018,4 8 0,0
20.06.2017 03:00:00 15,5 15,0 - - - 2 1 S 1018,6 7 0,0
20.06.2017 02:00:00 15,9 15,4 - - - 2 1 SE 1018,5 17 0,0
20.06.2017 01:00:00 16,3 15,5 - - - 2 1 E 1018,6 14 0,0
20.06.2017 00:00:00 17,5 16,3 - - - 2 1 S 1018,9 19 0,0
19.06.2017 23:00:00 17,8 16,4 - - - 2 1 E 1019,0 18 0,0

tt = temperature
td = dewpoint
tt 5cm = temperature 5cm
tt -20cm = temperature -20cm
tt -100cm = temperature -100cm
ff = wind speed
dd = wind direction
ppp = reduced air pressure
vv = visibility
rr = precipitation

Next stations